IRIDIUM 131

Last updated on Tue Sep 22 2026 00:03:21 GMT+0000 (Coordinated Universal Time)

1 43079U 17083K 26264.05156440 .00000018 00000+0 -63400-6 0 9995 2 43079 86.3916 282.1016 0002184 92.2060 267.9386 14.34217368457840
UTC large
Height (km)
Speed (km/s)
/
Latitude / Longitude
Inclination (degrees)
Orbital Period (minutes)
Azimuth
Elevation
Range (km)
Doppler Factor

Next 0 passes for location: London (51.5072 / 0.1276)

No passes found over London.
IRIDIUM 131